User: anonymous   Login
Location: Unspecified
(0.0000°N, 0.0000°E)
Time: 03:34:02
(UTC+00:00)
Language:

USA 223 - Orbit

View from above orbital plane
View from above orbital plane
View from above satellite
View from above satellite

Ground track
Ground track

The orbit data is extracted from the following two-line orbital elements,

1 37232U 10063A   17288.17214256 0.00000000  00000-0  00000-0 0    04
2 37232   3.0167 181.5572 0040117  93.1133 267.3651  1.00270000    08
Epoch (UTC): 15 October 2017 04:07:53
Eccentricity: 0.0040117
inclination: 3.0167°
perigee height: 35617 km
apogee height: 35956 km
right ascension of ascending node: 181.5572°
argument of perigee: 93.1133°
revolutions per day: 1.00270000
mean anomaly at epoch: 267.3651°
orbit number at epoch: 0

The dashed part of the orbit path shows where the satellite is in the earth's shadow,  

DLR